Simultaneous Nadir Overpasses (SNOs) Predictions

Prediction of SNOs between FY3D and AQUA Satellite Orbit:

Table of predicted SNOs for the next 14.0 days since TLE Epoch: 4/13/2024
Index Date (FY3D) Time (FY3D) Lat,Lon (FY3D) SZA (FY3D ) Date (AQUA) Time (AQUA) Lat,Lon (AQUA) SZA (AQUA ) Distance(km) Time Diff (sec)
1 04/15/2024 01:18:27 -81.00, -62.81 106.41 04/15/2024 01:19:41 -81.39, -62.31 106.23 43.44 74
2 04/15/2024 02:07:56 79.25, 129.50 69.88 04/15/2024 02:07:49 79.25, 129.53 69.87 0.62 7
3 04/17/2024 14:11:46 -79.42, 127.20 110.77 04/17/2024 14:12:17 -79.41, 127.34 110.80 2.86 31
4 04/17/2024 15:02:22 79.08, -62.76 68.73 04/17/2024 15:01:31 79.08, -62.80 68.74 0.86 51
5 04/20/2024 02:15:31 79.41, 126.39 68.34 04/20/2024 02:16:39 79.42, 126.25 68.34 2.84 68
6 04/20/2024 03:06:11 -79.26, -65.04 111.90 04/20/2024 03:05:57 -79.25, -64.95 111.91 2.16 14
7 04/22/2024 15:09:58 79.29, -66.19 67.30 04/22/2024 15:10:20 79.30, -66.29 67.30 2.22 22
8 04/22/2024 16:00:38 -79.13, 102.37 112.94 04/22/2024 15:59:38 -79.13, 102.48 112.94 2.42 60
9 04/25/2024 03:13:49 -79.50, -68.83 113.23 04/25/2024 03:14:46 -79.49, -68.72 113.26 2.34 57



Historial Predications of SNOs between FY3D and AQUA
